N6ZQK Weather Reports


Display with metric or nautical units.
time (UTC)temp
F
wind
direction
speed
MPH
gust
MPH
rain 1hr
in
rain 24hr
in
rain mn
in
humidity
%
barometer
mb
20260902070603 53 155 5.0 7.0 0.00 0.00 0.00 78 1014.6
20260902070005 53 158 4.0 9.0 0.00 0.00 0.00 78 1015.0
20260902065403 53 157 3.0 7.0 0.00 0.00 0.00 77 1015.0
20260902064803 54 161 3.0 7.0 0.00 0.00 0.00 77 1014.8
20260902064418 54 162 3.0 7.0 0.00 0.00 0.00 77 1014.9
20260902063603 54 163 2.0 5.0 0.00 0.00 0.00 77 1015.0
20260902063003 54 163 1.0 5.0 0.00 0.00 0.00 77 1015.0
20260902062403 54 165 2.0 7.0 0.00 0.00 0.00 77 1015.0
20260902061804 54 167 2.0 7.0 0.00 0.00 0.00 77 1014.9
20260902061418 53 169 2.0 7.0 0.00 0.00 0.00 77 1015.1
20260902060603 53 170 2.0 7.0 0.00 0.00 0.00 76 1015.1
20260902060003 53 168 2.0 7.0 0.00 0.00 0.00 76 1015.3
20260902055403 53 155 2.0 12.0 0.00 0.00 0.00 76 1015.4
20260902054803 53 142 2.0 9.0 0.00 0.00 0.00 76 1015.3
20260902054203 53 137 2.0 10.0 0.00 0.00 0.00 76 1015.4
20260902053603 53 141 3.0 10.0 0.00 0.00 0.00 76 1015.4
20260902053003 53 141 3.0 9.0 0.00 0.00 0.00 76 1015.4
20260902052403 53 142 3.0 9.0 0.00 0.00 0.00 76 1015.4
20260902051803 53 155 3.0 6.0 0.00 0.00 0.00 76 1015.6
20260902051203 54 162 2.0 5.0 0.00 0.00 0.00 75 1015.7
20260902050603 54 170 2.0 8.0 0.00 0.00 0.00 75 1015.7
20260902050005 54 181 1.0 6.0 0.00 0.00 0.00 74 1016.2
20260902045403 54 204 1.0 5.0 0.00 0.00 0.00 73 1016.0
20260902044803 54 215 1.0 5.0 0.00 0.00 0.00 73 1015.9
20260902044417 55 236 0.0 3.0 0.00 0.00 0.00 72 1015.9
20260902043817 55 236 0.0 2.0 0.00 0.00 0.00 72 1016.0
20260902043217 55 236 1.0 3.0 0.00 0.00 0.00 71 1015.9
20260902042618 55 236 0.0 3.0 0.00 0.00 0.00 71 1015.8
20260902041803 56 236 0.0 2.0 0.00 0.00 0.00 70 1015.5
20260902041203 56 236 0.0 1.0 0.00 0.00 0.00 69 1015.4
20260902040603 57 235 0.0 2.0 0.00 0.00 0.00 69 1015.2
20260902040003 57 212 1.0 9.0 0.00 0.00 0.00 67 1015.0
20260902035403 57 213 1.0 12.0 0.00 0.00 0.00 67 1015.0
20260902034803 57 244 1.0 5.0 0.00 0.00 0.00 66 1014.9
20260902034203 58 236 1.0 5.0 0.00 0.00 0.00 66 1014.9
20260902033817 58 236 2.0 7.0 0.00 0.00 0.00 66 1014.8
20260902033218 58 231 3.0 12.0 0.00 0.00 0.00 65 1014.6
20260902032403 58 228 1.0 12.0 0.00 0.00 0.00 64 1014.5
20260902031803 58 230 1.0 6.0 0.00 0.00 0.00 63 1014.4
20260902031204 58 232 2.0 7.0 0.00 0.00 0.00 62 1014.3
20260902030603 59 236 2.0 7.0 0.00 0.00 0.00 62 1014.0
20260902030003 59 230 1.0 6.0 0.00 0.00 0.00 61 1014.1
20260902025617 59 224 1.0 6.0 0.00 0.00 0.00 61 1014.1
20260902024803 59 219 1.0 5.0 0.00 0.00 0.00 60 1014.0
20260902024417 60 218 2.0 6.0 0.00 0.00 0.00 60 1013.7
20260902023604 60 216 2.0 7.0 0.00 0.00 0.00 59 1013.7
20260902023003 60 219 1.0 7.0 0.00 0.00 0.00 58 1013.7
20260902022403 61 230 1.0 7.0 0.00 0.00 0.00 58 1013.7
20260902021803 61 235 2.0 13.0 0.00 0.00 0.00 57 1013.6
20260902021203 62 227 3.0 13.0 0.00 0.00 0.00 57 1013.4
20260902020604 62 219 2.0 9.0 0.00 0.00 0.00 55 1013.4
20260902020003 62 221 2.0 7.0 0.00 0.00 0.00 56 1013.5
20260902015403 62 231 2.0 6.0 0.00 0.00 0.00 55 1013.2
20260902014803 63 241 1.0 5.0 0.00 0.00 0.00 55 1013.3
20260902014203 63 235 1.0 7.0 0.00 0.00 0.00 54 1013.2
20260902013604 63 229 3.0 13.0 0.00 0.00 0.00 54 1013.4
20260902013003 63 223 3.0 13.0 0.00 0.00 0.00 53 1013.4
20260902012403 63 206 2.0 13.0 0.00 0.00 0.00 53 1013.4
20260902011803 64 231 4.0 13.0 0.00 0.00 0.00 53 1013.4
20260902011203 64 227 4.0 10.0 0.00 0.00 0.00 52 1013.3
20260902010603 64 235 3.0 13.0 0.00 0.00 0.00 53 1013.4
20260902010003 64 202 3.0 14.0 0.00 0.00 0.00 53 1013.3
20260902005403 64 206 5.0 14.0 0.00 0.00 0.00 52 1013.2
20260902005019 64 228 5.0 14.0 0.00 0.00 0.00 51 1013.2
20260902004418 64 242 4.0 13.0 0.00 0.00 0.00 52 1013.2
20260902003603 64 241 5.0 15.0 0.00 0.00 0.00 52 1013.2
20260902003003 65 236 3.0 15.0 0.00 0.00 0.00 53 1013.2
20260902002403 65 218 3.0 10.0 0.00 0.00 0.00 52 1013.2
20260902001803 65 212 4.0 12.0 0.00 0.00 0.00 51 1013.2
20260902001203 65 224 4.0 10.0 0.00 0.00 0.00 51 1013.2
20260902000603 65 223 3.0 10.0 0.00 0.00 0.00 52 1013.2
20260902000218 65 219 4.0 15.0 0.00 0.00 0.00 52 1013.2
20260901235404 65 220 7.0 16.0 0.00 0.00 0.00 50 1013.0
20260901234803 65 210 5.0 13.0 0.00 0.00 0.00 51 1013.0
20260901234203 65 186 6.0 16.0 0.00 0.00 0.00 50 1013.0
20260901233603 65 200 7.0 16.0 0.00 0.00 0.00 50 1012.9
20260901233003 65 239 5.0 14.0 0.00 0.00 0.00 50 1013.0
20260901232403 65 200 5.0 15.0 0.00 0.00 0.00 50 1013.2
20260901231803 65 201 5.0 15.0 0.00 0.00 0.00 50 1013.1
20260901231203 65 198 8.0 16.0 0.00 0.00 0.00 49 1013.2
20260901230603 66 198 6.0 16.0 0.00 0.00 0.00 48 1013.2
20260901230219 66 193 5.0 14.0 0.00 0.00 0.00 50 1013.3
20260901225404 65 198 6.0 15.0 0.00 0.00 0.00 49 1012.9
20260901224803 65 211 6.0 15.0 0.00 0.00 0.00 49 1012.9
20260901224417 65 222 7.0 15.0 0.00 0.00 0.00 50 1013.0
20260901223603 65 217 4.0 14.0 0.00 0.00 0.00 52 1013.0
20260901223003 65 199 6.0 16.0 0.00 0.00 0.00 51 1013.0
20260901222403 65 194 6.0 16.0 0.00 0.00 0.00 53 1013.0
20260901221804 65 200 5.0 12.0 0.00 0.00 0.00 50 1013.0
20260901221203 65 234 6.0 17.0 0.00 0.00 0.00 53 1013.0
20260901220604 65 219 8.0 18.0 0.00 0.00 0.00 53 1013.2
20260901220004 65 212 7.0 18.0 0.00 0.00 0.00 51 1013.3
20260901215618 65 193 7.0 15.0 0.00 0.00 0.00 53 1013.3
20260901214803 65 186 5.0 14.0 0.00 0.00 0.00 52 1013.2
20260901214203 65 188 5.0 14.0 0.00 0.00 0.00 54 1013.3
20260901213819 64 175 5.0 15.0 0.00 0.00 0.00 55 1013.3
20260901213218 64 169 5.0 17.0 0.00 0.00 0.00 54 1013.3
20260901212403 64 200 3.0 10.0 0.00 0.00 0.00 58 1013.5
20260901211803 64 198 5.0 15.0 0.00 0.00 0.00 59 1013.5
20260901211203 64 196 5.0 15.0 0.00 0.00 0.00 58 1013.5
20260901210603 63 198 4.0 14.0 0.00 0.00 0.00 60 1013.8
20260901210003 63 225 3.0 13.0 0.00 0.00 0.00 62 1013.9
20260901205403 62 231 3.0 13.0 0.00 0.00 0.00 61 1013.9
20260901205017 63 220 5.0 15.0 0.00 0.00 0.00 59 1014.0
20260901204203 63 210 4.0 15.0 0.00 0.00 0.00 59 1014.0
20260901203818 63 204 3.0 14.0 0.00 0.00 0.00 59 1014.0
20260901203003 63 198 5.0 19.0 0.00 0.00 0.00 61 1013.9
20260901202403 62 198 3.0 10.0 0.00 0.00 0.00 61 1013.9
20260901201803 62 184 3.0 13.0 0.00 0.00 0.00 62 1013.8
20260901201203 62 187 4.0 14.0 0.00 0.00 0.00 63 1013.9
20260901200603 61 208 6.0 14.0 0.00 0.00 0.00 64 1014.1
20260901200003 61 232 4.0 14.0 0.00 0.00 0.00 65 1014.0
20260901195403 61 204 5.0 14.0 0.00 0.00 0.00 64 1014.0
20260901195016 61 175 5.0 14.0 0.00 0.00 0.00 63 1014.0
20260901194418 62 183 6.0 15.0 0.00 0.00 0.00 63 1014.1
20260901193603 62 195 8.0 19.0 0.00 0.00 0.00 63 1014.1
20260901193003 61 189 4.0 14.0 0.00 0.00 0.00 65 1014.0
20260901192403 62 200 3.0 10.0 0.00 0.00 0.00 64 1014.1
20260901191803 61 197 4.0 12.0 0.00 0.00 0.00 66 1014.2
20260901191203 61 191 4.0 12.0 0.00 0.00 0.00 65 1014.1
20260901190817 61 200 5.0 16.0 0.00 0.00 0.00 65 1014.2
20260901190003 60 193 5.0 14.0 0.00 0.00 0.00 66 1014.2
20260901185403 60 211 5.0 19.0 0.00 0.00 0.00 67 1014.3
20260901185018 60 210 8.0 20.0 0.00 0.00 0.00 66 1014.3
20260901184418 60 217 8.0 20.0 0.00 0.00 0.00 67 1014.3
20260901183817 60 221 6.0 13.0 0.00 0.00 0.00 69 1014.2
20260901183003 59 188 5.0 16.0 0.00 0.00 0.00 70 1014.1
20260901182403 58 177 5.0 17.0 0.00 0.00 0.00 72 1014.1
20260901181803 58 168 6.0 17.0 0.00 0.00 0.00 71 1014.1
20260901181203 58 161 6.0 15.0 0.00 0.00 0.00 72 1014.2
20260901180603 58 153 5.0 15.0 0.00 0.00 0.00 72 1014.1
20260901180217 57 164 4.0 13.0 0.00 0.00 0.00 74 1014.3
20260901175403 56 202 5.0 13.0 0.00 0.00 0.00 77 1014.4
20260901174803 56 198 4.0 10.0 0.00 0.00 0.00 78 1014.5
20260901174203 56 193 4.0 14.0 0.00 0.00 0.00 78 1014.4
20260901173603 55 161 5.0 14.0 0.00 0.00 0.00 78 1014.6
20260901173004 55 122 4.0 12.0 0.00 0.00 0.00 79 1014.6
20260901172618 54 139 3.0 12.0 0.00 0.00 0.00 80 1014.5
20260901171803 53 152 6.0 12.0 0.00 0.00 0.00 82 1014.7
20260901171203 53 153 7.0 16.0 0.00 0.00 0.00 82 1014.7
20260901170603 53 160 6.0 16.0 0.00 0.00 0.00 83 1014.6
20260901170003 52 169 5.0 14.0 0.00 0.00 0.00 84 1014.4
20260901165403 52 180 5.0 14.0 0.00 0.00 0.00 85 1014.4
20260901164803 52 186 5.0 14.0 0.00 0.00 0.00 86 1014.3
20260901164203 52 178 4.0 12.0 0.00 0.00 0.00 87 1014.3
20260901163604 52 169 3.0 9.0 0.00 0.00 0.00 88 1014.1
20260901163003 51 182 4.0 13.0 0.00 0.00 0.00 88 1014.2
20260901162618 51 176 5.0 13.0 0.00 0.00 0.00 88 1014.2
20260901161804 51 167 4.0 12.0 0.00 0.00 0.00 88 1014.0
20260901161417 51 157 4.0 12.0 0.00 0.00 0.00 88 1014.1
20260901160819 51 149 5.0 13.0 0.00 0.00 0.00 88 1014.0
20260901160004 51 161 5.0 10.0 0.00 0.00 0.00 89 1013.5
20260901155403 51 165 5.0 10.0 0.00 0.00 0.00 89 1013.4
20260901154803 50 161 6.0 13.0 0.00 0.00 0.00 89 1013.3
20260901154203 50 166 5.0 13.0 0.00 0.00 0.00 89 1013.3
20260901153603 50 171 5.0 12.0 0.00 0.00 0.00 89 1013.5
20260901153003 50 172 6.0 12.0 0.00 0.00 0.00 89 1013.4
20260901152403 50 166 7.0 14.0 0.00 0.00 0.00 89 1013.3
20260901152017 50 160 6.0 14.0 0.00 0.00 0.00 89 1013.3
20260901151203 50 165 5.0 13.0 0.00 0.00 0.00 89 1013.1
20260901150603 50 161 5.0 13.0 0.00 0.00 0.00 89 1013.0
20260901150003 50 158 5.0 12.0 0.00 0.00 0.00 90 1012.5
20260901145403 50 160 5.0 10.0 0.00 0.00 0.00 90 1012.5
20260901144803 50 155 5.0 12.0 0.00 0.00 0.00 90 1012.2
20260901144203 50 154 5.0 12.0 0.00 0.00 0.00 90 1012.2
20260901143818 50 153 5.0 12.0 0.00 0.00 0.00 90 1012.2
20260901143003 49 154 5.0 13.0 0.00 0.00 0.00 90 1012.0
20260901142617 49 160 6.0 13.0 0.00 0.00 0.00 90 1012.0
20260901141803 49 159 6.0 14.0 0.00 0.00 0.00 91 1011.9
20260901141203 49 153 5.0 12.0 0.00 0.00 0.00 91 1011.8
20260901140603 49 149 5.0 13.0 0.00 0.00 0.00 91 1011.7
20260901140003 49 147 6.0 16.0 0.00 0.00 0.00 91 1011.2
20260901135403 49 143 7.0 18.0 0.00 0.00 0.00 91 1011.2
20260901135018 49 144 8.0 18.0 0.00 0.00 0.00 91 1011.1
20260901134203 49 143 7.0 15.0 0.00 0.00 0.00 91 1010.9
20260901133603 49 140 8.0 17.0 0.00 0.00 0.00 91 1011.0
20260901133003 49 139 9.0 16.0 0.00 0.00 0.00 91 1011.1
20260901132403 49 137 8.0 16.0 0.00 0.00 0.00 91 1011.1
20260901131803 49 141 7.0 15.0 0.00 0.00 0.00 91 1011.2
20260901131203 49 142 5.0 13.0 0.00 0.00 0.00 91 1011.3
20260901130603 49 146 5.0 14.0 0.00 0.00 0.00 91 1011.5
20260901130003 50 160 4.0 14.0 0.00 0.00 0.00 92 1011.3
20260901125403 49 165 5.0 13.0 0.00 0.00 0.00 91 1011.3
20260901124803 49 170 6.0 14.0 0.00 0.00 0.00 91 1011.1
20260901124203 50 172 6.0 14.0 0.00 0.00 0.00 91 1011.2
20260901123603 50 174 8.0 15.0 0.00 0.00 0.00 90 1011.1
20260901123003 50 176 6.0 15.0 0.00 0.00 0.00 90 1010.9
20260901122403 50 180 4.0 13.0 0.00 0.00 0.00 90 1010.7
20260901121803 50 177 5.0 13.0 0.00 0.00 0.00 89 1010.6
20260901121203 50 178 5.0 14.0 0.00 0.00 0.00 88 1010.6
20260901120604 50 181 4.0 14.0 0.00 0.00 0.00 87 1010.4
20260901120003 51 183 5.0 14.0 0.00 0.00 0.00 86 1010.1
20260901115403 52 186 4.0 10.0 0.00 0.00 0.00 84 1010.0
20260901114803 52 191 5.0 13.0 0.00 0.00 0.00 82 1010.0
20260901114203 53 181 5.0 13.0 0.00 0.00 0.00 80 1009.7
20260901113603 54 177 4.0 12.0 0.00 0.00 0.00 79 1009.3
20260901113003 55 165 4.0 6.0 0.00 0.00 0.00 77 1009.2
20260901112618 56 154 4.0 7.0 0.00 0.00 0.00 76 1009.1
20260901111803 56 127 2.0 6.0 0.00 0.00 0.00 75 1009.1
20260901111204 56 105 2.0 9.0 0.00 0.00 0.00 75 1009.0
20260901110603 55 107 4.0 9.0 0.00 0.00 0.00 75 1009.1
20260901110003 55 104 4.0 9.0 0.00 0.00 0.00 76 1009.0
20260901105403 55 100 3.0 10.0 0.00 0.00 0.00 77 1009.1
20260901104803 55 104 3.0 12.0 0.00 0.00 0.00 78 1009.1
20260901104203 54 104 5.0 12.0 0.00 0.00 0.00 80 1009.1
20260901103603 54 103 6.0 13.0 0.00 0.00 0.00 81 1008.9
20260901103004 54 106 5.0 13.0 0.00 0.00 0.00 81 1008.9
20260901102403 54 113 4.0 10.0 0.00 0.00 0.00 82 1009.0
20260901101804 54 136 2.0 7.0 0.00 0.00 0.00 82 1009.1
20260901101203 54 143 3.0 6.0 0.00 0.00 0.00 82 1009.2
20260901100818 54 146 3.0 6.0 0.00 0.00 0.00 82 1009.3
20260901100003 54 151 3.0 6.0 0.00 0.00 0.00 82 1009.4
20260901095403 54 153 3.0 6.0 0.00 0.00 0.00 82 1009.5
20260901095017 54 154 2.0 6.0 0.00 0.00 0.00 82 1009.6
20260901094203 54 154 3.0 6.0 0.00 0.00 0.00 82 1009.4
20260901093603 54 156 3.0 6.0 0.00 0.00 0.00 82 1009.4
20260901093003 54 157 3.0 6.0 0.00 0.00 0.00 82 1009.4
20260901092403 54 161 3.0 6.0 0.00 0.00 0.00 83 1009.4
20260901091803 54 162 3.0 6.0 0.00 0.00 0.00 83 1009.5
20260901091203 54 158 3.0 6.0 0.00 0.00 0.00 82 1009.6
20260901090603 54 151 3.0 6.0 0.00 0.00 0.00 83 1009.5
20260901090003 54 144 2.0 5.0 0.00 0.00 0.00 83 1009.5
20260901085617 54 144 1.0 5.0 0.00 0.00 0.00 83 1009.5
20260901084803 54 144 1.0 5.0 0.00 0.00 0.00 83 1009.6
20260901084203 54 141 3.0 7.0 0.00 0.00 0.00 83 1009.6
20260901083603 54 139 4.0 9.0 0.00 0.00 0.00 83 1009.6
20260901083003 54 134 5.0 10.0 0.00 0.00 0.00 82 1009.6
20260901082403 54 138 4.0 10.0 0.00 0.00 0.00 82 1009.6
20260901082018 54 142 3.0 7.0 0.00 0.00 0.00 82 1009.7
20260901081203 54 145 3.0 6.0 0.00 0.00 0.00 82 1009.7
20260901080817 55 146 3.0 6.0 0.00 0.00 0.00 82 1009.8
20260901080003 55 154 4.0 10.0 0.00 0.00 0.00 81 1009.7
20260901075403 55 162 5.0 10.0 0.00 0.00 0.00 81 1009.7
20260901074803 55 162 5.0 10.0 0.00 0.00 0.00 81 1009.8
20260901074203 55 165 6.0 12.0 0.00 0.00 0.00 81 1009.8
20260901073603 55 171 5.0 10.0 0.00 0.00 0.00 81 1009.7
20260901073003 55 174 5.0 13.0 0.00 0.00 0.00 81 1009.6
20260901072403 55 172 5.0 13.0 0.00 0.00 0.00 81 1009.6
20260901071803 55 169 4.0 12.0 0.00 0.00 0.00 80 1009.4
20260901071203 56 169 4.0 10.0 0.00 0.00 0.00 80 1009.4
20260901070817 56 169 3.0 10.0 0.00 0.00 0.00 79 1009.3